Regional Weather Roundup
Issued by NWS Charleston, SC

Home | Current Version | Previous Version | Text Only | Print | Product List | Glossary On
Versions: 1 2 3 4 5 6 7 8 9 10 11 12 13 14 15 16 17 18 19 20 21 22 23 24 25 26 27 28 29 30 31 32 33 34 35 36 37 38 39 40 41 42 43 44 45 46 47 48 49 50
000
ASUS42 KCHS 210826
RWRCHS

REGIONAL WEATHER ROUNDUP
NATIONAL WEATHER SERVICE CHARLESTON SC
400 AM EDT TUE APR 21 2015

NOTE: "FAIR" INDICATES FEW OR NO CLOUDS BELOW 12,000 FEET WITH NO
SIGNIFICANT WEATHER AND/OR OBSTRUCTIONS TO VISIBILITY.

NOT ALL STATIONS ARE QUALITY CONTROLLED BY THE NATIONAL
WEATHER SERVICE. USE DATA WITH CAUTION...ESPECIALLY
DEWPOINT OBSERVATIONS.

SCZ027-030-031-034>040-042>050-210900-
...SOUTHEAST SOUTH CAROLINA...

CITY           SKY/WX    TMP DP  RH WIND       PRES   REMARKS
N CHARLESTON   PTCLDY    65  61  87 W6        29.85R
WATERFRONT PRK   N/A     66 N/A N/A W6          N/A
MOUNT PLEASANT FAIR      68  63  83 CALM      29.84S
PINOPOLIS      NOT AVBL
MONCKS CORNER  PTSUNNY   63  61  94 SW3       29.84S
SUMMERVILLE    FAIR      61  61 100 CALM      29.85S
BEAUFORT MCAS  PTCLDY    64  61  90 W8        29.86R
BEAUFORT ARPT  PTSUNNY   64  63  94 CALM      29.86S
HILTON HEAD IS CLOUDY    66  64  94 SW8       29.88R
WALTERBORO     MOSUNNY   61  59  94 SW5       29.86R
ALLENDALE      FAIR      63  61  94 CALM      29.85S

...SOUTHERN MIDLANDS AND PEE DEE...

CITY           SKY/WX    TMP DP  RH WIND       PRES   REMARKS
GEORGETOWN     NOT AVBL
KINGSTREE      NOT AVBL
ORANGEBURG     PTCLDY    61  57  87 SW8       29.83S
BARNWELL       FAIR      59  55  88 W3        29.86R
AIKEN          FAIR      55  46  71 W3        29.88R
MANNING        FAIR      63  57  82 SW8       29.82S
COLUMBIA       CLEAR     60  50  69 W7        29.82
SUMTER         CLEAR     61  55  79 W9        29.79R
FLORENCE       CLEAR     63  58  83 SW9       29.79R
MYRTLE BEACH   CLEAR     64  59  82 SW8       29.83S
N MYRTLE BEACH CLEAR     66  59  78 SW13      29.80R

$$

GAZ063-065-086>088-099>101-113>116-118-119-134>141-150-210900-
...SOUTHEAST GEORGIA...

CITY           SKY/WX    TMP DP  RH WIND       PRES   REMARKS
SAVANNAH ARPT  PTCLDY    63  61  94 W5        29.88R
HUNTER AAF     PTCLDY    64  64 100 SW9       29.85S
FORT STEWART   NOT AVBL
STATESBORO       N/A     62  62 100 SW3       29.88R
SYLVANIA       MOSUNNY   61  61 100 CALM      29.88R
CLAXTON        PTSUNNY   63  63 100 W3        29.89R

...CSRA...CENTRAL AND FAR SOUTHEAST GEORGIA...

CITY           SKY/WX    TMP DP  RH WIND       PRES   REMARKS
THOMSON        CLEAR     55  53  93 CALM      29.91R
AUGUSTA-BUSH   CLEAR     58  50  75 W6        29.85S
AUGUSTA-DANIEL CLEAR     61  48  62 W3        29.85F
SWAINSBORO     NOT AVBL
VIDALIA        MOCLDY    63  63 100 CALM      29.89R
EASTMAN        PTSUNNY   60  58  94 CALM      29.93R
HAZLEHURST     FAIR      64  64 100 W3        29.89S
ALMA           PTCLDY    64  63  96 W5        29.89R
WAYCROSS       CLOUDY    68  68  98 SW5       29.89R
JESUP          CLOUDY    68  66  94 CALM      29.89S
BAXLEY         FAIR      64  63  94 NW3       29.89R
BRUNSWICK      CLOUDY    66  63  88 SW9       29.90R
SAINT SIMONS   CLOUDY    65  63  93 SW12      29.90R

$$

SCZ027-028-034-036>038-045-046-048>050-GAZ119-141-210900-
...LAKE AND SUPPLEMENTAL COASTAL OBSERVATIONS...

STATION/POSITION TIME  TEMP    WIND        PRES    WAVE   SWELL
                       AIR SEA DIR/SP/G            HT/PER HT/PER/DIR
                 (UTC) (F)     (DEG/KT/KT) (MB)    (FT/S) (FT/S/D)
UPR LAKE MARION  NOT AVBL
WINYAH BAY       0745   66     250/  6     1009.0R
LAKE MURRAY      0700   63     250/ 11/ 13 1008.8S
ACE BASIN NERRS  NOT AVBL
FORT PULASKI     0800   66 71  240/  8/ 14 1011.9R
SAPELO ISLAND    0800   67     240/ 10     1012.0S

$$

ANZ835-935-AMZ111-154-330-350-352-354-370-450-454-472-210900-
...C-MAN AND BUOY OBSERVATIONS...

STATION/POSITION TIME  TEMP    WIND        PRES    WAVE   SWELL
                       AIR SEA DIR/SP/G            HT/PER HT/PER/DIR
                 (UTC) (F)     (DEG/KT/KT) (MB)    (FT/S) (FT/S/D)
BUOY 41004       0750   71 73  240/ 21/ 25 1009.5F   5/ 6   2/ 9
BUOY 41008       0750   69 68  240/ 16/ 17 1011.8F   2/ 3   2/ 80/ 9
FOLLY BEACH CMAN 0800   67     240/  7/ 11 1010.6R
CAPERS NEARSHORE NOT AVBL
FRIPP NEARSHORE  NOT AVBL


STATION/POSITION TIME  TEMP    WIND        PRES    WAVE   SWELL
                       AIR SEA DIR/SP/G            HT/PER HT/PER/DIR
                 (UTC) (F)     (DEG/KT/KT) (MB)    (FT/S) (FT/S/D)
5E ST. MARYS GA  0721      70                N/A     2/15
FRYING PAN BUOY  0750   74 72  240/ 27/ 31 1008.9F   7/ 6
BUOY 41025       0750   74 74  220/ 23/ 29 1006.6S   7/ 6   2/100/13
CAPE LOOKOUT NC  0800   68     240/ 12/ 17 1007.4R
BUOY 41002       0750   71 72  220/ 14/ 17 1011.4R   5/ 6   3/310/12
BUOY 41010       0720   75 78  150/  8/ 10 1012.6F
ST AUGUSTINE FL  0800   64 63  230/  6/  7 1013.8R


$$



USA.gov is the U.S. government's official web portal to all federal, state and local government web resources and services.